JEI232 DAUA-EDDH

Flight info

Callsign JEI232
Flight time N/A
Altitude 39000
Route ADR DCT TIO DCT GHA DCT ABSAL/N0436F410 DCT ZEM/N0435F400 DCT PECES DCT SECON DCT ADITA DCT VANAS DCT ESOKO DCT GODRA/N0434F410 DCT LOKTA/N0433F400 DCT TEDGO/N0434F410 DCT IBAGA DCT PIBAD/N0435F430 DCT BAMKI DCT LARET DCT AGATI DCT NOLGO NOLGO3P
Aircraft LJ35/M-SGHRWXY/SB1

Departure

Time N/A
Airport Touat-Cheikh Sidi Mohamed Belkebir Airport (DAUA)

Arrival

Time 2026-04-24 15:24
Airport Hamburg Helmut Schmidt Airport (EDDH)
Time Latitude Longitude Altitude Speed Heading
2026-04-24 11:42 28.75006 0.12945 27969 ft 424 kts
2026-04-24 11:42 28.77881 0.13720 28515 ft 426 kts
2026-04-24 11:42 28.80774 0.14495 29004 ft 428 kts
2026-04-24 11:42 28.83680 0.15285 29449 ft 431 kts
2026-04-24 11:43 28.86614 0.16072 29915 ft 434 kts
2026-04-24 11:43 28.89562 0.16855 30313 ft 436 kts
2026-04-24 11:43 28.92524 0.17656 30722 ft 438 kts
2026-04-24 11:43 28.95491 0.18468 31116 ft 440 kts
2026-04-24 11:44 28.98479 0.19279 31469 ft 444 kts
2026-04-24 11:44 29.01485 0.20086 31877 ft 444 kts
2026-04-24 11:44 29.04495 0.20896 32217 ft 445 kts
2026-04-24 11:44 29.07520 0.21708 32521 ft 447 kts
2026-04-24 11:45 29.10546 0.22535 32842 ft 448 kts
2026-04-24 11:45 29.13589 0.23364 33129 ft 449 kts
2026-04-24 11:45 29.16636 0.24187 33381 ft 451 kts
2026-04-24 11:45 29.19676 0.25115 33584 ft 457 kts 12°
2026-04-24 11:46 29.22587 0.26633 34001 ft 461 kts 22°
2026-04-24 11:46 29.25231 0.28670 34320 ft 471 kts 33°
2026-04-24 11:46 29.27676 0.31223 34562 ft 478 kts 37°
2026-04-24 11:46 29.30099 0.33837 34742 ft 480 kts 37°
2026-04-24 11:47 29.32544 0.36476 34908 ft 483 kts 37°
2026-04-24 11:47 29.35004 0.39110 35072 ft 485 kts 36°
2026-04-24 11:47 29.37482 0.41760 35196 ft 487 kts 37°
2026-04-24 11:47 29.39955 0.44434 35317 ft 490 kts 37°
2026-04-24 11:48 29.42435 0.47118 35418 ft 490 kts 37°
2026-04-24 11:48 29.44939 0.49806 35501 ft 491 kts 37°
2026-04-24 11:48 29.49934 0.55198 35636 ft 494 kts 37°
2026-04-24 11:49 29.52396 0.57863 35837 ft 492 kts 37°
2026-04-24 11:49 29.54879 0.60537 36159 ft 488 kts 36°
2026-04-24 11:49 29.57347 0.63199 36478 ft 487 kts 37°
2026-04-24 11:49 29.59809 0.65876 36781 ft 486 kts 37°
2026-04-24 11:50 29.62270 0.68550 36958 ft 488 kts 37°
2026-04-24 11:50 29.64746 0.71222 37198 ft 489 kts 37°
2026-04-24 11:50 29.67224 0.73910 37357 ft 491 kts 37°
2026-04-24 11:50 29.69710 0.76608 37530 ft 492 kts 37°
2026-04-24 11:51 29.72216 0.79327 37640 ft 497 kts 37°
2026-04-24 11:51 29.74728 0.82057 37796 ft 498 kts 37°
2026-04-24 11:51 29.77241 0.84794 37916 ft 498 kts 37°
2026-04-24 11:51 29.79752 0.87534 37982 ft 500 kts 37°
2026-04-24 11:52 29.84798 0.93024 38090 ft 494 kts 37°
2026-04-24 11:52 29.87278 0.95734 38303 ft 489 kts 37°
2026-04-24 11:52 29.89750 0.98434 38507 ft 489 kts 37°
2026-04-24 11:53 29.92220 1.01130 38750 ft 488 kts 37°
2026-04-24 11:53 29.94684 1.03828 38860 ft 492 kts 37°
2026-04-24 11:53 29.99645 1.09247 38864 ft 495 kts 37°
2026-04-24 11:54 30.04644 1.14735 38864 ft 495 kts 37°
2026-04-24 11:54 30.09639 1.20217 38867 ft 495 kts 37°
2026-04-24 11:55 30.14809 1.25407 38870 ft 481 kts 23°
2026-04-24 11:55 30.17816 1.26920 38881 ft 466 kts
2026-04-24 11:55 30.20887 1.27803 38880 ft 457 kts
2026-04-24 11:56 30.27108 1.29209 38887 ft 456 kts
2026-04-24 11:56 30.33178 1.31554 38886 ft 462 kts 13°
2026-04-24 11:57 30.39224 1.33974 38902 ft 458 kts
2026-04-24 11:57 30.45353 1.36180 38890 ft 463 kts 11°
2026-04-24 11:58 30.51456 1.38567 38893 ft 462 kts 10°
2026-04-24 11:58 30.57536 1.40822 38895 ft 462 kts 11°
2026-04-24 11:59 30.63654 1.43170 38897 ft 463 kts 10°
2026-04-24 11:59 30.69781 1.45489 38898 ft 462 kts 11°
2026-04-24 12:00 30.75887 1.47825 38899 ft 461 kts 10°
2026-04-24 12:00 30.81990 1.50135 38900 ft 461 kts 10°
2026-04-24 12:01 30.88081 1.52467 38899 ft 461 kts 10°
2026-04-24 12:01 30.94177 1.54789 38903 ft 461 kts 10°
2026-04-24 12:02 31.00245 1.57112 38903 ft 462 kts 10°
2026-04-24 12:02 31.06341 1.59461 38902 ft 461 kts 10°
2026-04-24 12:03 31.12436 1.61780 38910 ft 461 kts 11°
2026-04-24 12:03 31.18527 1.64132 38912 ft 462 kts 10°
2026-04-24 12:04 31.24624 1.66470 38913 ft 461 kts 11°
2026-04-24 12:04 31.30719 1.68813 38917 ft 461 kts 11°
2026-04-24 12:05 31.36808 1.71172 38923 ft 460 kts 11°
2026-04-24 12:05 31.42910 1.73522 38928 ft 461 kts 11°
2026-04-24 12:06 31.49009 1.75883 38925 ft 461 kts 11°
2026-04-24 12:06 31.55091 1.78237 38926 ft 460 kts 11°
2026-04-24 12:07 31.61135 1.80572 38927 ft 461 kts 11°
2026-04-24 12:07 31.67221 1.82953 38928 ft 461 kts 11°
2026-04-24 12:08 31.73310 1.85314 38937 ft 459 kts 11°
2026-04-24 12:08 31.79391 1.87678 38945 ft 461 kts 11°
2026-04-24 12:09 31.85470 1.90051 38942 ft 460 kts 11°
2026-04-24 12:09 31.91556 1.92430 38942 ft 460 kts 12°
2026-04-24 12:10 31.97593 1.94789 38945 ft 459 kts 11°
2026-04-24 12:11 32.06663 1.98351 38959 ft 458 kts 12°
2026-04-24 12:11 32.11700 2.00310 38946 ft 458 kts 11°
2026-04-24 12:12 32.17749 2.02701 38950 ft 459 kts 12°
2026-04-24 12:12 32.23809 2.05072 38951 ft 459 kts 12°
2026-04-24 12:13 32.29856 2.07462 38951 ft 458 kts 12°
2026-04-24 12:13 32.35917 2.09850 38956 ft 460 kts 12°
2026-04-24 12:14 32.41981 2.12241 38960 ft 459 kts 12°
2026-04-24 12:14 32.48038 2.14643 38956 ft 457 kts 12°
2026-04-24 12:15 32.54030 2.17016 38957 ft 457 kts 12°
2026-04-24 12:15 32.60069 2.19407 38983 ft 459 kts 12°
2026-04-24 12:16 32.66126 2.21822 38968 ft 458 kts 12°
2026-04-24 12:16 32.72174 2.24225 38970 ft 458 kts 12°
2026-04-24 12:17 32.78219 2.26633 38975 ft 460 kts 12°
2026-04-24 12:17 32.84282 2.29056 38975 ft 460 kts 12°
2026-04-24 12:18 32.90330 2.31468 38975 ft 457 kts 13°
2026-04-24 12:18 32.96349 2.33879 38983 ft 456 kts 13°
2026-04-24 12:19 33.02336 2.36277 38979 ft 458 kts 13°
2026-04-24 12:19 33.08374 2.38705 38990 ft 457 kts 13°
2026-04-24 12:20 33.14399 2.41116 39002 ft 456 kts 13°
2026-04-24 12:20 33.20418 2.43551 38998 ft 459 kts 13°
2026-04-24 12:21 33.26472 2.45981 39001 ft 458 kts 13°
2026-04-24 12:21 33.32480 2.48412 39006 ft 459 kts 13°
2026-04-24 12:22 33.38526 2.50859 39009 ft 458 kts 13°
2026-04-24 12:22 33.44572 2.53301 39007 ft 458 kts 13°
2026-04-24 12:23 33.50606 2.55749 39008 ft 458 kts 13°
2026-04-24 12:23 33.56650 2.58205 39010 ft 457 kts 13°
2026-04-24 12:24 33.62680 2.60656 39014 ft 458 kts 13°
2026-04-24 12:24 33.68680 2.63095 39013 ft 458 kts 14°
2026-04-24 12:25 33.74708 2.65561 39024 ft 457 kts 13°
2026-04-24 12:25 33.80758 2.68023 39019 ft 458 kts 14°
2026-04-24 12:26 33.86775 2.70492 39018 ft 456 kts 14°
2026-04-24 12:26 33.92774 2.72947 39038 ft 455 kts 14°
2026-04-24 12:27 33.98763 2.75406 39030 ft 454 kts 15°
2026-04-24 12:27 34.04736 2.77864 39028 ft 454 kts 14°
2026-04-24 12:28 34.10732 2.80326 39031 ft 455 kts 14°
2026-04-24 12:28 34.16715 2.82787 39032 ft 455 kts 15°
2026-04-24 12:29 34.22669 2.85251 39037 ft 456 kts 15°
2026-04-24 12:29 34.28689 2.87738 39041 ft 457 kts 16°
2026-04-24 12:30 34.34710 2.90230 39047 ft 457 kts 15°
2026-04-24 12:30 34.40726 2.92733 39046 ft 456 kts 16°
2026-04-24 12:31 34.46739 2.95217 39041 ft 457 kts 16°
2026-04-24 12:31 34.52750 2.97724 39033 ft 459 kts 17°
2026-04-24 12:32 34.58734 3.00238 39039 ft 462 kts 15°
2026-04-24 12:32 34.64814 3.02727 39032 ft 462 kts 16°
2026-04-24 12:33 34.70879 3.05311 39027 ft 461 kts 16°
2026-04-24 12:33 34.76957 3.07811 39029 ft 460 kts 16°
2026-04-24 12:34 34.83002 3.10372 39023 ft 459 kts 16°
2026-04-24 12:34 34.89043 3.12896 39021 ft 459 kts 16°
2026-04-24 12:35 34.95084 3.15435 39010 ft 459 kts 16°
2026-04-24 12:35 35.01111 3.17978 39006 ft 458 kts 16°
2026-04-24 12:36 35.07092 3.20490 39003 ft 457 kts 16°
2026-04-24 12:36 35.13103 3.23041 39002 ft 457 kts 17°
2026-04-24 12:37 35.19117 3.25580 39003 ft 457 kts 16°
2026-04-24 12:37 35.25128 3.28129 39003 ft 456 kts 17°
2026-04-24 12:38 35.31139 3.30681 39005 ft 457 kts 17°
2026-04-24 12:38 35.37138 3.33230 39005 ft 456 kts 17°
2026-04-24 12:39 35.49104 3.38328 39006 ft 456 kts 17°
2026-04-24 12:40 35.55107 3.40890 39013 ft 457 kts 17°
2026-04-24 12:40 35.61107 3.43459 39013 ft 456 kts 17°
2026-04-24 12:41 35.67076 3.46014 39011 ft 454 kts 17°
2026-04-24 12:41 35.73045 3.48575 39020 ft 453 kts 17°
2026-04-24 12:42 35.78947 3.51115 39025 ft 452 kts 17°
2026-04-24 12:42 35.84875 3.53663 39029 ft 451 kts 17°
2026-04-24 12:43 35.90806 3.56222 39029 ft 452 kts 17°
2026-04-24 12:43 35.96737 3.58787 39029 ft 451 kts 17°
2026-04-24 12:44 36.02657 3.61340 39028 ft 451 kts 17°
2026-04-24 12:44 36.08595 3.63917 39030 ft 453 kts 18°
2026-04-24 12:45 36.14531 3.66494 39031 ft 452 kts 17°
2026-04-24 12:45 36.20453 3.69065 39029 ft 451 kts 17°
2026-04-24 12:46 36.26378 3.71648 39033 ft 451 kts 17°
2026-04-24 12:46 36.32297 3.74107 39023 ft 450 kts 11°
2026-04-24 12:47 36.38493 3.74599 39025 ft 446 kts 352°
2026-04-24 12:47 36.44422 3.72664 39032 ft 440 kts 338°
2026-04-24 12:48 36.50212 3.70102 39024 ft 444 kts 339°
2026-04-24 12:48 36.56038 3.67516 39031 ft 444 kts 338°
2026-04-24 12:49 36.61855 3.64943 39030 ft 444 kts 338°
2026-04-24 12:49 36.67620 3.62384 39033 ft 441 kts 338°
2026-04-24 12:50 36.73418 3.59790 39042 ft 443 kts 339°
2026-04-24 12:50 36.79381 3.57857 39032 ft 447 kts 353°
2026-04-24 12:51 36.85567 3.58408 39032 ft 448 kts
2026-04-24 12:51 36.91724 3.59773 39039 ft 450 kts
2026-04-24 12:52 36.97896 3.61132 39045 ft 450 kts
2026-04-24 12:52 37.04058 3.62501 39043 ft 449 kts
2026-04-24 12:53 37.10218 3.63855 39051 ft 450 kts
2026-04-24 12:53 37.16341 3.65221 39047 ft 449 kts
2026-04-24 12:54 37.22500 3.66583 39055 ft 452 kts
2026-04-24 12:54 37.28680 3.67961 39059 ft 451 kts
2026-04-24 12:55 37.34847 3.69337 39059 ft 449 kts
2026-04-24 12:55 37.41012 3.70709 39060 ft 449 kts
2026-04-24 12:56 37.47106 3.72076 39065 ft 447 kts
2026-04-24 12:56 37.53244 3.73447 39067 ft 448 kts
2026-04-24 12:57 37.59381 3.74823 39065 ft 448 kts
2026-04-24 12:57 37.65508 3.76199 39066 ft 447 kts
2026-04-24 12:58 37.71639 3.77582 39074 ft 447 kts
2026-04-24 12:58 37.77766 3.78961 39081 ft 448 kts
2026-04-24 12:59 37.83900 3.80349 39079 ft 448 kts
2026-04-24 12:59 37.90040 3.81734 39086 ft 448 kts
2026-04-24 13:00 37.96123 3.83111 39088 ft 446 kts
2026-04-24 13:00 38.02235 3.84505 39091 ft 446 kts
2026-04-24 13:01 38.08357 3.85897 39090 ft 447 kts
2026-04-24 13:01 38.13437 3.87047 39097 ft 446 kts
2026-04-24 13:02 38.20581 3.88683 39096 ft 445 kts
2026-04-24 13:02 38.25646 3.89839 39100 ft 445 kts
2026-04-24 13:03 38.31733 3.91232 39107 ft 444 kts
2026-04-24 13:03 38.37806 3.92618 39102 ft 443 kts
2026-04-24 13:04 38.43889 3.94021 39110 ft 444 kts
2026-04-24 13:04 38.49928 3.95413 39111 ft 444 kts
2026-04-24 13:05 38.56001 3.96968 39109 ft 444 kts
2026-04-24 13:05 38.62077 3.98467 39112 ft 443 kts
2026-04-24 13:06 38.68133 3.99986 39113 ft 443 kts
2026-04-24 13:06 38.74185 4.01493 39122 ft 444 kts
2026-04-24 13:07 38.80203 4.03003 39121 ft 443 kts
2026-04-24 13:07 38.86254 4.04528 39121 ft 442 kts
2026-04-24 13:08 38.92277 4.06034 39122 ft 441 kts
2026-04-24 13:08 38.98311 4.07561 39129 ft 442 kts
2026-04-24 13:09 39.07336 4.09833 39141 ft 441 kts
2026-04-24 13:09 39.13373 4.11372 39137 ft 441 kts
2026-04-24 13:10 39.19395 4.12889 39138 ft 442 kts
2026-04-24 13:10 39.25393 4.14419 39141 ft 442 kts
2026-04-24 13:11 39.31428 4.15945 39141 ft 442 kts
2026-04-24 13:11 39.37463 4.17496 39142 ft 442 kts
2026-04-24 13:12 39.43513 4.19030 39145 ft 442 kts
2026-04-24 13:12 39.49549 4.20582 39147 ft 441 kts
2026-04-24 13:13 39.55522 4.22103 39149 ft 440 kts
2026-04-24 13:13 39.61554 4.23659 39153 ft 440 kts
2026-04-24 13:14 39.67560 4.25198 39153 ft 439 kts
2026-04-24 13:14 39.73502 4.26735 39159 ft 437 kts
2026-04-24 13:15 39.79475 4.28268 39164 ft 438 kts
2026-04-24 13:15 39.85432 4.29814 39163 ft 437 kts
2026-04-24 13:16 39.91408 4.31355 39161 ft 438 kts
2026-04-24 13:16 39.97371 4.32907 39162 ft 436 kts
2026-04-24 13:17 40.03328 4.34450 39163 ft 436 kts
2026-04-24 13:17 40.09269 4.35997 39159 ft 436 kts
2026-04-24 13:18 40.15184 4.37545 39163 ft 436 kts
2026-04-24 13:18 40.21122 4.39092 39162 ft 435 kts
2026-04-24 13:19 40.27059 4.40647 39161 ft 434 kts
2026-04-24 13:19 40.32976 4.42194 39160 ft 434 kts
2026-04-24 13:20 40.38902 4.43760 39157 ft 434 kts
2026-04-24 13:20 40.44839 4.45311 39161 ft 434 kts
2026-04-24 13:21 40.50722 4.46866 39162 ft 434 kts
2026-04-24 13:21 40.56647 4.48432 39162 ft 434 kts
2026-04-24 13:22 40.62565 4.49996 39161 ft 433 kts
2026-04-24 13:22 40.68487 4.51566 39162 ft 434 kts
2026-04-24 13:23 40.74412 4.53140 39168 ft 433 kts
2026-04-24 13:23 40.80317 4.54711 39167 ft 432 kts
2026-04-24 13:24 40.86180 4.56271 39166 ft 433 kts
2026-04-24 13:24 40.92098 4.57853 39166 ft 435 kts
2026-04-24 13:25 40.98027 4.59437 39168 ft 433 kts
2026-04-24 13:25 41.03936 4.61019 39171 ft 433 kts
2026-04-24 13:26 41.09809 4.62597 39168 ft 433 kts 10°
2026-04-24 13:26 41.15696 4.64177 39166 ft 432 kts 10°
2026-04-24 13:27 41.21586 4.65768 39168 ft 432 kts 10°
2026-04-24 13:27 41.27470 4.67356 39173 ft 431 kts 10°
2026-04-24 13:28 41.33357 4.68945 39174 ft 432 kts 10°
2026-04-24 13:28 41.39220 4.70533 39175 ft 430 kts 10°
2026-04-24 13:29 41.45049 4.72116 39176 ft 431 kts 10°
2026-04-24 13:29 41.50924 4.73718 39176 ft 431 kts 11°
2026-04-24 13:30 41.56803 4.75313 39179 ft 431 kts 10°
2026-04-24 13:30 41.62674 4.76917 39179 ft 429 kts 11°
2026-04-24 13:31 41.68529 4.78516 39176 ft 429 kts 11°
2026-04-24 13:31 41.74393 4.80121 39176 ft 431 kts 11°
2026-04-24 13:32 41.80232 4.81725 39174 ft 431 kts 11°
2026-04-24 13:32 41.86104 4.83339 39174 ft 430 kts 11°
2026-04-24 13:33 41.91967 4.84953 39177 ft 430 kts 11°
2026-04-24 13:33 41.97821 4.86566 39175 ft 430 kts 11°
2026-04-24 13:34 42.03691 4.88196 39178 ft 431 kts 11°
2026-04-24 13:34 42.09555 4.89815 39176 ft 431 kts 11°
2026-04-24 13:35 42.15438 4.91450 39176 ft 432 kts 12°
2026-04-24 13:35 42.21295 4.93078 39176 ft 433 kts 11°
2026-04-24 13:36 42.27235 4.94731 39177 ft 433 kts 11°
2026-04-24 13:36 42.33106 4.96373 39173 ft 434 kts 12°
2026-04-24 13:37 42.39041 4.98034 39172 ft 436 kts 12°
2026-04-24 13:37 42.44994 4.99701 39173 ft 436 kts 12°
2026-04-24 13:38 42.50943 5.01369 39175 ft 437 kts 12°
2026-04-24 13:38 42.56903 5.03046 39175 ft 437 kts 12°
2026-04-24 13:39 42.62825 5.04717 39173 ft 438 kts 12°
2026-04-24 13:39 42.68771 5.06388 39173 ft 437 kts 12°
2026-04-24 13:40 42.74715 5.08078 39175 ft 436 kts 12°
2026-04-24 13:40 42.80518 5.10418 39172 ft 435 kts 26°
2026-04-24 13:41 42.85417 5.15219 39170 ft 436 kts 46°
2026-04-24 13:41 42.89177 5.21696 39174 ft 436 kts 52°
2026-04-24 13:42 42.92839 5.28288 39168 ft 436 kts 52°
2026-04-24 13:42 42.96508 5.34904 39168 ft 436 kts 53°
2026-04-24 13:43 43.00135 5.41468 39167 ft 435 kts 53°
2026-04-24 13:43 43.03780 5.48055 39167 ft 435 kts 53°
2026-04-24 13:44 43.07409 5.54683 39165 ft 435 kts 53°
2026-04-24 13:44 43.11062 5.61296 39163 ft 436 kts 53°
2026-04-24 13:45 43.14693 5.67942 39159 ft 435 kts 53°
2026-04-24 13:45 43.18325 5.74576 39161 ft 435 kts 53°
2026-04-24 13:46 43.22333 5.80745 39149 ft 436 kts 39°
2026-04-24 13:46 43.27624 5.84754 39151 ft 438 kts 19°
2026-04-24 13:47 43.33449 5.87083 39147 ft 439 kts 18°
2026-04-24 13:47 43.39328 5.89429 39132 ft 440 kts 18°
2026-04-24 13:48 43.45204 5.91766 39116 ft 439 kts 18°
2026-04-24 13:48 43.51069 5.94111 39112 ft 439 kts 18°
2026-04-24 13:49 43.56934 5.96464 39107 ft 440 kts 17°
2026-04-24 13:49 43.62827 5.98820 39102 ft 441 kts 18°
2026-04-24 13:50 43.68725 6.01192 39099 ft 442 kts 17°
2026-04-24 13:50 43.73643 6.03170 39101 ft 443 kts 18°
2026-04-24 13:51 43.80530 6.05956 39105 ft 443 kts 18°
2026-04-24 13:51 43.86457 6.08350 39106 ft 443 kts 18°
2026-04-24 13:52 43.91390 6.10351 39110 ft 444 kts 18°
2026-04-24 13:52 43.97345 6.12764 39111 ft 445 kts 18°
2026-04-24 13:53 44.03296 6.15190 39114 ft 445 kts 18°
2026-04-24 13:53 44.09252 6.17616 39113 ft 447 kts 18°
2026-04-24 13:54 44.15225 6.20055 39110 ft 448 kts 18°
2026-04-24 13:54 44.21215 6.22503 39112 ft 449 kts 18°
2026-04-24 13:55 44.27203 6.24967 39114 ft 449 kts 18°
2026-04-24 13:55 44.33211 6.27430 39117 ft 450 kts 18°
2026-04-24 13:56 44.39181 6.29891 39122 ft 450 kts 19°
2026-04-24 13:56 44.45200 6.32376 39123 ft 451 kts 18°
2026-04-24 13:57 44.51227 6.34873 39123 ft 452 kts 18°
2026-04-24 13:57 44.57258 6.37374 39129 ft 452 kts 17°
2026-04-24 13:58 44.63289 6.39877 39128 ft 452 kts 18°
2026-04-24 13:58 44.69330 6.42401 39130 ft 453 kts 18°
2026-04-24 13:59 44.75385 6.44923 39130 ft 454 kts 18°
2026-04-24 13:59 44.81388 6.47431 39134 ft 452 kts 18°
2026-04-24 14:00 44.87410 6.49954 39132 ft 451 kts 18°
2026-04-24 14:00 44.93422 6.52483 39136 ft 451 kts 18°
2026-04-24 14:01 44.99435 6.55014 39140 ft 450 kts 18°
2026-04-24 14:01 45.05438 6.57549 39145 ft 450 kts 18°
2026-04-24 14:02 45.11432 6.60079 39145 ft 450 kts 18°
2026-04-24 14:02 45.17447 6.62637 39140 ft 450 kts 18°
2026-04-24 14:03 45.23433 6.65172 39139 ft 452 kts 18°
2026-04-24 14:03 45.29465 6.67741 39147 ft 452 kts 18°
2026-04-24 14:04 45.35485 6.70305 39157 ft 452 kts 18°
2026-04-24 14:04 45.41519 6.72885 39153 ft 452 kts 18°
2026-04-24 14:05 45.47375 6.76045 39146 ft 449 kts 31°
2026-04-24 14:05 45.52777 6.80544 39158 ft 450 kts 31°
2026-04-24 14:06 45.58203 6.85020 39160 ft 451 kts 31°
2026-04-24 14:06 45.63597 6.89520 39156 ft 452 kts 31°
2026-04-24 14:07 45.69065 6.94066 39163 ft 452 kts 31°
2026-04-24 14:07 45.74468 6.98580 39116 ft 452 kts 32°
2026-04-24 14:08 45.79903 7.03134 39100 ft 454 kts 31°
2026-04-24 14:08 45.85360 7.07710 39098 ft 454 kts 31°
2026-04-24 14:09 45.90816 7.12307 39101 ft 454 kts 31°
2026-04-24 14:09 45.96265 7.16899 39109 ft 453 kts 32°
2026-04-24 14:10 46.01687 7.21491 39129 ft 452 kts 32°
2026-04-24 14:10 46.07079 7.26070 39121 ft 452 kts 31°
2026-04-24 14:11 46.12499 7.30667 39107 ft 452 kts 31°
2026-04-24 14:12 46.20624 7.37596 39102 ft 452 kts 32°
2026-04-24 14:12 46.26046 7.42229 39106 ft 453 kts 32°
2026-04-24 14:13 46.31477 7.46893 39115 ft 453 kts 31°
2026-04-24 14:13 46.36913 7.51554 39155 ft 455 kts 32°
2026-04-24 14:14 46.42309 7.56218 39161 ft 454 kts 31°
2026-04-24 14:14 46.50467 7.63243 39152 ft 455 kts 32°
2026-04-24 14:15 46.55903 7.67963 39157 ft 456 kts 32°
2026-04-24 14:15 46.61311 7.72756 39152 ft 455 kts 34°
2026-04-24 14:16 46.66687 7.77578 39155 ft 454 kts 33°
2026-04-24 14:17 46.74689 7.84873 39153 ft 454 kts 32°
2026-04-24 14:17 46.82730 7.92189 39150 ft 455 kts 33°
2026-04-24 14:18 46.88096 7.97095 39152 ft 455 kts 33°
2026-04-24 14:18 46.93480 8.02032 39155 ft 456 kts 33°
2026-04-24 14:19 46.98849 8.06963 39151 ft 455 kts 33°
2026-04-24 14:19 47.04218 8.11902 39151 ft 457 kts 33°
2026-04-24 14:20 47.09565 8.16838 39153 ft 457 kts 33°
2026-04-24 14:20 47.14940 8.21812 39154 ft 456 kts 33°
2026-04-24 14:21 47.20316 8.26789 39154 ft 455 kts 33°
2026-04-24 14:21 47.25657 8.31770 39158 ft 453 kts 32°
2026-04-24 14:22 47.31003 8.36742 39155 ft 453 kts 32°
2026-04-24 14:23 47.38960 8.44182 39157 ft 454 kts 32°
2026-04-24 14:23 47.44290 8.49184 39157 ft 454 kts 33°
2026-04-24 14:24 47.49625 8.54194 39160 ft 453 kts 32°
2026-04-24 14:24 47.54945 8.59208 39160 ft 453 kts 32°
2026-04-24 14:25 47.59364 8.63380 39162 ft 453 kts 32°
2026-04-24 14:25 47.65546 8.69228 39163 ft 452 kts 32°
2026-04-24 14:26 47.70847 8.74262 39160 ft 453 kts 32°
2026-04-24 14:26 47.76160 8.79321 39158 ft 454 kts 32°
2026-04-24 14:27 47.81482 8.84400 39159 ft 454 kts 32°
2026-04-24 14:27 47.86797 8.89474 39160 ft 454 kts 32°
2026-04-24 14:28 47.92078 8.94543 39163 ft 454 kts 32°
2026-04-24 14:28 47.97393 8.99644 39163 ft 452 kts 32°
2026-04-24 14:29 48.02683 9.04738 39159 ft 452 kts 32°
2026-04-24 14:29 48.07930 9.09817 39160 ft 452 kts 32°
2026-04-24 14:30 48.12370 9.14100 39156 ft 454 kts 32°
2026-04-24 14:30 48.16071 9.17121 39151 ft 452 kts 20°
2026-04-24 14:30 48.19035 9.18511 39149 ft 451 kts 11°
2026-04-24 14:31 48.25255 9.19712 39159 ft 451 kts
2026-04-24 14:31 48.31501 9.20775 39161 ft 450 kts
2026-04-24 14:32 48.37715 9.21821 39163 ft 450 kts
2026-04-24 14:32 48.43939 9.22873 39164 ft 450 kts
2026-04-24 14:33 48.50105 9.24491 39153 ft 453 kts 20°
2026-04-24 14:33 48.55654 9.28836 39159 ft 453 kts 30°
2026-04-24 14:34 48.61182 9.33426 39161 ft 453 kts 24°
2026-04-24 14:34 48.66899 9.37530 39163 ft 454 kts 26°
2026-04-24 14:34 48.69770 9.39491 39154 ft 453 kts 15°
2026-04-24 14:35 48.72841 9.40318 39155 ft 449 kts
2026-04-24 14:35 48.79080 9.40331 39162 ft 448 kts 357°
2026-04-24 14:36 48.85297 9.40838 39165 ft 449 kts
2026-04-24 14:36 48.91513 9.42013 39168 ft 450 kts
2026-04-24 14:37 48.97759 9.42706 39170 ft 450 kts
2026-04-24 14:37 49.03992 9.43686 39169 ft 450 kts
2026-04-24 14:38 49.10191 9.44504 39175 ft 451 kts
2026-04-24 14:38 49.16434 9.45418 39175 ft 450 kts
2026-04-24 14:39 49.21662 9.46150 39174 ft 450 kts
2026-04-24 14:39 49.27904 9.47029 39160 ft 451 kts
2026-04-24 14:40 49.34113 9.47923 39162 ft 450 kts
2026-04-24 14:40 49.40361 9.48812 39160 ft 448 kts
2026-04-24 14:41 49.46554 9.49697 39160 ft 448 kts
2026-04-24 14:41 49.52773 9.50587 39158 ft 449 kts
2026-04-24 14:42 49.58996 9.51481 39164 ft 449 kts
2026-04-24 14:42 49.65219 9.52392 39161 ft 449 kts
2026-04-24 14:43 49.71423 9.53270 39162 ft 450 kts
2026-04-24 14:43 49.77649 9.54187 39159 ft 450 kts
2026-04-24 14:44 49.83883 9.55080 39161 ft 450 kts
2026-04-24 14:44 49.90131 9.56000 39161 ft 451 kts
2026-04-24 14:45 49.96395 9.56909 39156 ft 452 kts
2026-04-24 14:45 50.02636 9.57828 39169 ft 453 kts
2026-04-24 14:46 50.08919 9.58748 39165 ft 452 kts
2026-04-24 14:46 50.15181 9.59670 39168 ft 452 kts
2026-04-24 14:47 50.21415 9.60596 39170 ft 451 kts
2026-04-24 14:47 50.27678 9.61512 39172 ft 452 kts
2026-04-24 14:48 50.33965 9.62453 39174 ft 453 kts
2026-04-24 14:48 50.40242 9.63384 39179 ft 453 kts
2026-04-24 14:49 50.46517 9.64299 39181 ft 452 kts
2026-04-24 14:49 50.52779 9.65328 39185 ft 453 kts
2026-04-24 14:50 50.59021 9.66299 39189 ft 453 kts
2026-04-24 14:50 50.65295 9.67308 39188 ft 452 kts
2026-04-24 14:51 50.71561 9.68306 39195 ft 453 kts
2026-04-24 14:51 50.77810 9.69310 39197 ft 455 kts
2026-04-24 14:52 50.84096 9.70307 39198 ft 453 kts
2026-04-24 14:52 50.90363 9.71335 39197 ft 453 kts
2026-04-24 14:53 50.96635 9.72334 39197 ft 452 kts
2026-04-24 14:53 51.02899 9.73348 39198 ft 452 kts
2026-04-24 14:54 51.09129 9.74363 39195 ft 453 kts
2026-04-24 14:54 51.15411 9.75386 39193 ft 453 kts
2026-04-24 14:55 51.20672 9.76244 39196 ft 453 kts
2026-04-24 14:55 51.27956 9.77441 39195 ft 452 kts
2026-04-24 14:56 51.34231 9.78462 39190 ft 453 kts
2026-04-24 14:56 51.40503 9.79500 39202 ft 453 kts
2026-04-24 14:57 51.46782 9.80527 39189 ft 452 kts
2026-04-24 14:57 51.52986 9.81568 39185 ft 451 kts
2026-04-24 14:58 51.59242 9.82591 39186 ft 452 kts
2026-04-24 14:58 51.65501 9.83645 39189 ft 450 kts
2026-04-24 14:59 51.71721 9.84677 39188 ft 449 kts
2026-04-24 14:59 51.77921 9.85716 38812 ft 446 kts 360°
2026-04-24 14:59 51.81007 9.86228 38186 ft 444 kts
2026-04-24 15:00 51.84081 9.86746 37498 ft 445 kts
2026-04-24 15:00 51.87160 9.87268 36846 ft 445 kts
2026-04-24 15:00 51.90247 9.87785 36207 ft 445 kts
2026-04-24 15:00 51.93299 9.88293 35591 ft 446 kts
2026-04-24 15:01 51.96381 9.88821 34982 ft 444 kts
2026-04-24 15:01 51.99453 9.89343 34388 ft 443 kts
2026-04-24 15:01 52.02518 9.89859 33743 ft 442 kts
2026-04-24 15:01 52.05584 9.90375 33077 ft 442 kts
2026-04-24 15:02 52.08638 9.90889 32425 ft 440 kts
2026-04-24 15:02 52.11670 9.91411 31807 ft 437 kts
2026-04-24 15:02 52.14689 9.91928 31185 ft 435 kts
2026-04-24 15:02 52.17699 9.92433 30576 ft 434 kts
2026-04-24 15:03 52.20696 9.92945 29930 ft 433 kts
2026-04-24 15:03 52.23552 9.93438 29268 ft 430 kts
2026-04-24 15:03 52.26518 9.93948 28589 ft 427 kts
2026-04-24 15:03 52.29465 9.94451 27927 ft 424 kts
2026-04-24 15:04 52.32359 9.94944 27290 ft 422 kts
2026-04-24 15:04 52.35270 9.95447 26673 ft 420 kts
2026-04-24 15:04 52.38172 9.95948 26057 ft 417 kts
2026-04-24 15:04 52.41050 9.96440 25451 ft 414 kts
2026-04-24 15:05 52.43912 9.96931 24873 ft 411 kts
2026-04-24 15:05 52.46758 9.97426 24291 ft 410 kts
2026-04-24 15:05 52.49579 9.97923 23710 ft 407 kts
2026-04-24 15:05 52.52384 9.98403 23036 ft 399 kts
2026-04-24 15:06 52.55111 9.98867 22373 ft 390 kts
2026-04-24 15:06 52.57747 9.99327 21732 ft 383 kts
2026-04-24 15:06 52.60378 9.99792 21106 ft 377 kts
2026-04-24 15:06 52.62964 10.00243 20556 ft 369 kts
2026-04-24 15:07 52.65501 10.00682 20016 ft 364 kts
2026-04-24 15:07 52.68009 10.01111 19517 ft 359 kts
2026-04-24 15:07 52.70478 10.01548 19062 ft 354 kts
2026-04-24 15:07 52.72914 10.01976 18616 ft 352 kts
2026-04-24 15:08 52.75334 10.02401 18127 ft 348 kts
2026-04-24 15:08 52.77734 10.02819 17621 ft 345 kts
2026-04-24 15:08 52.80108 10.03230 17126 ft 341 kts
2026-04-24 15:08 52.82459 10.03643 16639 ft 338 kts
2026-04-24 15:09 52.84794 10.04060 16175 ft 335 kts
2026-04-24 15:09 52.87074 10.04464 15711 ft 332 kts
2026-04-24 15:09 52.89368 10.04864 15247 ft 331 kts
2026-04-24 15:09 52.91652 10.05261 14790 ft 330 kts
2026-04-24 15:10 52.93927 10.05666 14337 ft 328 kts
2026-04-24 15:10 52.96190 10.06065 13880 ft 325 kts
2026-04-24 15:10 52.98435 10.06455 13382 ft 323 kts
2026-04-24 15:10 53.00656 10.06855 12892 ft 320 kts
2026-04-24 15:11 53.02867 10.07256 12409 ft 318 kts
2026-04-24 15:11 53.05063 10.07642 11932 ft 316 kts
2026-04-24 15:11 53.07242 10.08022 11454 ft 313 kts
2026-04-24 15:11 53.09410 10.08401 11001 ft 313 kts
2026-04-24 15:12 53.11540 10.08788 10555 ft 307 kts
2026-04-24 15:12 53.15604 10.09516 9761 ft 280 kts
2026-04-24 15:12 53.17503 10.09852 9463 ft 269 kts
2026-04-24 15:13 53.19356 10.10183 9167 ft 270 kts
2026-04-24 15:13 53.21248 10.10520 8880 ft 277 kts
2026-04-24 15:13 53.23175 10.10865 8602 ft 279 kts
2026-04-24 15:13 53.25111 10.11211 8324 ft 280 kts
2026-04-24 15:14 53.27050 10.11559 8049 ft 280 kts
2026-04-24 15:14 53.29001 10.11912 7778 ft 279 kts
2026-04-24 15:14 53.30910 10.12059 7512 ft 269 kts 358°
2026-04-24 15:14 53.32738 10.11898 7256 ft 264 kts 355°
2026-04-24 15:15 53.34557 10.11791 7034 ft 259 kts 358°
2026-04-24 15:15 53.36348 10.11793 6813 ft 256 kts 359°
2026-04-24 15:15 53.38129 10.11792 6596 ft 256 kts 358°
2026-04-24 15:15 53.39907 10.11760 6362 ft 256 kts 358°
2026-04-24 15:16 53.41689 10.11722 6178 ft 255 kts 358°
2026-04-24 15:16 53.43440 10.11698 6172 ft 250 kts 358°
2026-04-24 15:16 53.45168 10.11681 6174 ft 247 kts 358°
2026-04-24 15:16 53.46900 10.11650 6171 ft 252 kts 358°
2026-04-24 15:17 53.48676 10.11613 6172 ft 259 kts 358°
2026-04-24 15:17 53.50495 10.11577 6176 ft 260 kts 359°
2026-04-24 15:17 53.52317 10.11558 6177 ft 263 kts 359°
2026-04-24 15:17 53.54154 10.11563 6005 ft 271 kts
2026-04-24 15:18 53.55973 10.12539 5820 ft 282 kts 27°
2026-04-24 15:18 53.57422 10.14709 5616 ft 275 kts 44°
2026-04-24 15:18 53.58630 10.17128 5318 ft 266 kts 44°
2026-04-24 15:18 53.59887 10.19369 5018 ft 260 kts 39°
2026-04-24 15:19 53.61214 10.21414 4702 ft 252 kts 37°
2026-04-24 15:19 53.62672 10.22932 4372 ft 243 kts 14°
2026-04-24 15:19 53.64267 10.23041 3942 ft 229 kts 345°
2026-04-24 15:19 53.65639 10.21943 3422 ft 199 kts 326°
2026-04-24 15:20 53.66576 10.20568 2880 ft 161 kts 314°
2026-04-24 15:20 53.67320 10.19220 2329 ft 165 kts 313°
2026-04-24 15:20 53.68011 10.17604 1999 ft 169 kts 291°
2026-04-24 15:20 53.68285 10.15762 1989 ft 155 kts 284°
2026-04-24 15:21 53.68481 10.14029 1996 ft 144 kts 284°
2026-04-24 15:21 53.68658 10.12404 1993 ft 141 kts 283°
2026-04-24 15:21 53.68794 10.10748 1960 ft 146 kts 272°
2026-04-24 15:21 53.68377 10.09216 1780 ft 145 kts 230°
2026-04-24 15:22 53.67619 10.08143 1434 ft 136 kts 232°
2026-04-24 15:22 53.67015 10.07002 1145 ft 129 kts 238°
2026-04-24 15:22 53.66457 10.05824 889 ft 129 kts 238°
2026-04-24 15:23 53.65344 10.03511 593 ft 124 kts 235°
2026-04-24 15:23 53.64243 10.01269 306 ft 123 kts 234°
2026-04-24 15:23 53.63694 10.00161 120 ft 123 kts 235°
2026-04-24 15:24 53.62951 9.98654 39 ft 25 kts 230°
2026-04-24 15:25 53.62698 9.98475 41 ft 14 kts 172°
2026-04-24 15:25 53.62517 9.98646 41 ft 14 kts 100°
2026-04-24 15:26 53.62567 9.99138 41 ft 12 kts 80°
2026-04-24 15:27 53.62574 9.99338 41 ft 7 kts 161°
2026-04-24 15:27 53.62543 9.99494 41 ft 7 kts 82°
2026-04-24 15:28 53.62559 9.99552 41 ft 0 kts 149°